Torna al catalogo

NAVSTAR 52

USA 168

AttivoNavigazioneMEO
NORAD 27704·PAYLOAD·🇺🇸 United States

Lanciato Mar 31, 2003 da Cape Canaveral Space Force Station

Loading…

Prossimi Passaggi (prossime 24 ore)

TLE

AggiornatoSource: Space-Track

Epoca: Sep 14, 2026, 15:00 UTC

1 27704U 03010A   26257.62500000 -.00000095  00000-0  00000+0 0  9993
2 27704  54.7517 321.8825 0006649 253.1986 155.4100  1.91455019171649

Traccia NAVSTAR 52 in tempo reale con AllMySat

Download on the App Store